Terminal Aerodrome Forecast
Issued by NWS Charleston, WV

Current Version | Previous Version | Graphics & Text | Print | Product List | Glossary On
Versions: 1 2 3 4 5 6 7 8 9 10 11 12 13 14 15 16 17 18 19 20 21 22 23 24 25
000
FTUS41 KRLX 211454 AAA
TAFCRW
TAF AMD
KCRW 211454Z 2115/2212 22007KT 6SM BR BKN050
     FM211530 24011KT P6SM -SHRA VCTS BKN050CB
     FM212000 VRB02KT P6SM BKN100
     FM220300 00000KT P6SM SCT100=

USA.gov is the U.S. government's official web portal to all federal, state and local government web resources and services.